User: anonymous   Login
Location: Stull Observatory
(42.2506°N, 77.7903°W)
Time: 18:17:33
(UTC-04:00)
Language:

Abrixas rocket - Orbit

View from above orbital plane
View from above orbital plane
View from above satellite
View from above satellite

Ground track
Ground track

The orbit data is extracted from the following two-line orbital elements,

1 25723U 99022C   17267.71423517  .00008682  00000-0  13074-3 0  9996
2 25723  48.4169 356.2646 0008860 160.3411 199.7877 15.55513596 21986
Epoch (UTC): 24 September 2017 17:08:29
Eccentricity: 0.0008860
inclination: 48.4169°
perigee height: 394 km
apogee height: 406 km
right ascension of ascending node: 356.2646°
argument of perigee: 160.3411°
revolutions per day: 15.55513596
mean anomaly at epoch: 199.7877°
orbit number at epoch: 2198

The dashed part of the orbit path shows where the satellite is in the earth's shadow,  

DLR